This is the latest recevied weather packets stored in our database for station/object K3XY-2. If no packets are shown the sender has not sent any weather packets the latest 1 day(s).
| Time | Temp. | Humidity | Pressure | Rain* | Wind** | Luminosity | Snow |
|---|---|---|---|---|---|---|---|
| 1778081349 | 15.56° C | 89% | 1008.7 hPa | 2.54 mm | - | - | - |
| 1778077749 | 16.67° C | 85% | 1008.4 hPa | 1.02 mm | - | - | - |
| 1778074149 | 17.78° C | 80% | 1008.3 hPa | 0 mm | - | - | - |
| 1778070549 | 18.33° C | 75% | 1008.4 hPa | 0 mm | - | - | - |
| 1778069949 | 18.33° C | 75% | 1008.5 hPa | 0 mm | - | - | - |
| 1778066949 | 17.78° C | 76% | 1008 hPa | 0 mm | - | - | - |
| 1778066349 | 17.78° C | 76% | 1008 hPa | 0 mm | - | - | - |
| 1778065749 | 17.78° C | 76% | 1008 hPa | 0 mm | - | - | - |
| 1778063349 | 17.78° C | 75% | 1007.7 hPa | 0 mm | - | - | - |
| 1778062749 | 17.78° C | 75% | 1007.6 hPa | 0 mm | - | - | - |
| 1778062149 | 18.33° C | 74% | 1007.6 hPa | 0 mm | - | - | - |
| 1778059149 | 18.33° C | 73% | 1007.6 hPa | 0 mm | - | - | - |
| 1778058549 | 18.33° C | 73% | 1007.6 hPa | 0 mm | - | - | - |
| 1778057949 | 18.33° C | 73% | 1007.7 hPa | 0 mm | - | - | - |
| 1778055549 | 18.89° C | 72% | 1007.7 hPa | 0 mm | - | - | - |
| 1778054949 | 18.89° C | 72% | 1007.8 hPa | 0 mm | - | - | - |
| 1778054349 | 18.89° C | 72% | 1007.9 hPa | 0 mm | - | - | - |
| 1778051349 | 18.89° C | 69% | 1008.1 hPa | 0 mm | - | - | - |
| 1778050749 | 18.89° C | 69% | 1008.1 hPa | 0 mm | - | - | - |
| 1778050148 | 18.89° C | 68% | 1008.3 hPa | 0 mm | - | - | - |
| 1778047749 | 19.44° C | 64% | 1008.5 hPa | 0 mm | - | - | - |
| 1778047149 | 19.44° C | 64% | 1008.6 hPa | 0 mm | - | - | - |
| 1778046548 | 19.44° C | 64% | 1008.5 hPa | 0 mm | - | - | - |
| 1778045948 | 19.44° C | 63% | 1008.7 hPa | 0 mm | - | - | - |
| 1778045348 | 19.44° C | 63% | 1008.7 hPa | 0 mm | - | - | - |
* Rain latest hour (hover to see other rain measurements)
** Current wind speed in m/s (hover to see current wind gust speed)